Hourly Data Report for September 15, 2017

All times are specified in Local Standard Time (LST). Add 1 hour to adjust for Daylight Saving Time where and when it is observed.

DOAKTOWN AUTO RCS
NEW BRUNSWICK

46°35'06.090" N
66°00'35.071" W
43.00 m
8101201
71038
ADN

Download Data

Hourly Data (September 2017)
Hourly Data Report for September 15, 2017
Temp Definition
°C
Dew Point Temp Definition
°C
Rel Hum Definition
%
Wind Dir Definition
10's deg

Wind Spd Definition
km/h
Visibility Definition
km
Stn Press Definition
kPa
Hmdx Definition


Wind Chill Definition


Weather Definition


TIME
00:00 14.2 13.2 94   0   100.83     LegendNANA
01:00 12.9 11.9 94   0   100.90     LegendNANA
02:00 11.6 10.1 90   0   100.97     LegendNANA
03:00 10.8 8.9 89   0   101.02     LegendNANA
04:00 9.8 8.5 91 32 1   101.06     LegendNANA
05:00 9.2 8.2 93   0   101.15     LegendNANA
06:00 8.6 7.8 94 0 1   101.26     LegendNANA
07:00 9.8 9.1 95 0 1   101.33     LegendNANA
08:00 11.8 10.7 93 0 1   101.39     LegendNANA
09:00 15.3 9.8 70 7 5   101.50     LegendNANA
10:00 17.1 11.0 67 11 5   101.51     LegendNANA
11:00 18.4 10.7 61 1 5   101.51     LegendNANA
12:00 19.7 10.9 57 5 5   101.46     LegendNANA
13:00 21.1 9.9 49 3 4   101.41     LegendNANA
14:00 22.5 10.1 45 22 1   101.36     LegendNANA
15:00 22.8 10.4 46 29 4   101.34     LegendNANA
16:00 23.1 10.5 45 5 3   101.33 25   LegendNANA
17:00 22.8 10.1 45 35 3   101.36     LegendNANA
18:00 18.7 13.3 71   0   101.36     LegendNANA
19:00 15.6 12.7 83   0   101.40     LegendNANA
20:00 13.8 12.0 89   0   101.43     LegendNANA
21:00 12.9 11.7 93   0   101.43     LegendNANA
22:00 12.0 11.1 94 0 1   101.42     LegendNANA
23:00 11.1 10.3 95   0   101.42     LegendNANA

Notes on Data Quality.

Legend

  • E = Estimated
  • M = Missing
  • NA = Not Available
  • ‡ = Partner data that is not subject to review by the National Climate Archives
Date modified: